This demonstration page uses our WeatherBlox Daily Observations layout. Learn more.

Left ArrowRight Arrow

39.95238, -75.16362

Hourly Observations for August 17, 2016

Temp ( °F °C ) Dew Point ( °F °C ) Humidity (%) Winds ( mph kmh ) Pressure ( in mb ) Visibility ( mi km ) Precip ( " mm )
12:51 am 00:51 Mostly Cloudy with Thunderstorms 84 29 77 25 79 79 SSW 14 22 30.03 1017 10 16 0.00 0.00
12:54 am 00:54 Mostly Cloudy with Thunderstorms 85 29.4 77 25 77 77 SSW 10 17 30.02 1017 10 16 0.00 0.00
1:20 am 01:20 Cloudy with Thunderstorms 84 29 77 25 79 79 W 12 19 30.06 1018 8 13 0.00 0.00
1:23 am 01:23 Cloudy with Thunderstorms 84 28.9 77 25 80 80 WNW 24 39 30.03 1017 5 8 0.00 0.03
1:26 am 01:26 Cloudy with Strong Thunderstorms 82 28 75 24 79 79 NW 15 24 30.03 1017 3 5 0.00 0.00
1:28 am 01:28 Cloudy with Strong Thunderstorms 81 27.2 76 24.4 85 85 NW 14 22 30.03 1017 1 2 0.02 0.51
1:32 am 01:32 Cloudy with Thunderstorms 81 27 77 25 89 89 W 16 26 30.03 1017 2 3 0.00 0.00
1:34 am 01:34 Cloudy with Thunderstorms 80 26.7 76 24.4 87 87 W 10 17 30.03 1017 3 5 0.22 5.59
1:39 am 01:39 Cloudy with Thunderstorms 79 26.1 74 23.3 85 85 W 14 22 30.03 1017 6 10 0.38 9.65
1:44 am 01:44 Cloudy with Thunderstorms 79 26 73 23 84 84 W 9 15 30.03 1017 8 13 0.00 0.00
1:48 am 01:48 Mostly Cloudy 81 27 73 23 79 79 W 14 22 30.03 1017 10 16 0.42 10.67
1:54 am 01:54 Mostly Cloudy 81 27.2 73 22.8 77 77 W 12 19 30.04 1017 10 16 0.42 10.67
2:54 am 02:54 Partly Cloudy 80 26.7 73 22.8 79 79 WSW 7 11 30.03 1017 10 16 0.00 0.00
3:54 am 03:54 Partly Cloudy 81 27.2 73 22.8 77 77 WSW 14 22 30.02 1017 10 16 0.00 0.00
4:54 am 04:54 Mostly Cloudy 80 26.7 72 22.2 76 76 WSW 16 26 30.03 1017 10 16 0.00 0.00
5:54 am 05:54 Partly Cloudy 79 26.1 71 21.7 77 77 W 10 17 30.04 1017 10 16 0.00 0.00
6:54 am 06:54 Partly Cloudy 79 26.1 70 21.1 74 74 W 9 15 30.05 1018 10 16 0.00 0.00
7:54 am 07:54 Partly Cloudy 80 26.7 70 21.1 71 71 W 13 20 30.05 1018 10 16 0.00 0.00
8:54 am 08:54 Partly Cloudy 82 27.8 70 21.1 67 67 W 15 24 30.06 1018 10 16 0.00 0.00
9:54 am 09:54 Partly Cloudy 83 28.3 67 19.4 59 59 NW 16 26 30.06 1018 10 16 0.00 0.00
10:54 am 10:54 Mostly Cloudy 83 28.3 66 18.9 57 57 WNW 14 22 30.07 1018 10 16 0.00 0.00
11:54 am 11:54 Mostly Cloudy 86 30 66 18.9 51 51 NW 10 17 30.06 1018 10 16 0.00 0.00
12:54 pm 12:54 Mostly Cloudy 87 30.6 65 18.3 48 48 NW 10 17 30.05 1018 10 16 0.00 0.00
1:54 pm 13:54 Mostly Cloudy 88 31.1 65 18.3 46 46 NW 9 15 30.04 1017 10 16 0.00 0.00
2:54 pm 14:54 Mostly Cloudy 89 31.7 64 17.8 43 43 W 9 15 30.03 1017 10 16 0.00 0.00
3:54 pm 15:54 Partly Cloudy 89 31.7 62 16.7 41 41 WNW 9 15 30.01 1016 10 16 0.00 0.00
4:54 pm 16:54 Mostly Cloudy 89 31.7 63 17.2 42 42 WNW 10 17 30.01 1016 10 16 0.00 0.00
5:54 pm 17:54 Mostly Cloudy 89 31.7 63 17.2 42 42 VRB 7 11 30.01 1016 10 16 0.00 0.00
6:54 pm 18:54 Partly Cloudy 88 31.1 64 17.8 45 45 W 8 13 30.01 1016 10 16 0.00 0.00
7:54 pm 19:54 Partly Cloudy 86 30 66 18.9 51 51 W 9 15 30.00 1016 10 16 0.00 0.00
8:54 pm 20:54 Mostly Cloudy 86 30 65 18.3 49 49 WNW 9 15 30.03 1017 10 16 0.00 0.00
9:54 pm 21:54 Cloudy 85 29.4 66 18.9 53 53 NNW 7 11 30.04 1017 10 16 0.00 0.00
10:54 pm 22:54 Cloudy with Light Rain 84 28.9 64 17.8 51 51 Calm 30.03 1017 10 16 0.00 0.03
11:46 pm 23:46 Cloudy with Rain 81 27.2 67 19.4 62 62 NW 5 7 30.03 1017 8 13 0.05 1.27
11:54 pm 23:54 Cloudy with Rain 79 26.1 68 20 69 69 NW 6 9 30.03 1017 8 13 0.06 1.52

Powered by AerisWeather